|
SL-16 R/B - Orbit
|
Strohbehn Observatory;
03:10:34
| Home | Info | Passes |
|
View from above orbital plane
|
View from above satellite
|
Ground track
|
The orbit data is extracted from the following two-line orbital elements,
1 31793U 07029B 13144.46124992 .00000314 00000-0 18941-3 0 7061
2 31793 070.9778 267.4409 0002338 268.3940 154.8086 14.14214780304790
| Epoch (UTC): | 24 May 2013 11:04:11 |
| Eccentricity: | 0.0002338 |
| inclination: | 70.9778° |
| perigee height: | 843 km |
| apogee height: | 846 km |
| right ascension of ascending node: | 267.4409° |
| argument of perigee: | 268.3940° |
| revolutions per day: | 14.14214780 |
| mean anomaly at epoch: | 154.8086° |
| orbit number at epoch: | 30479 |
The dashed part of the orbit path shows where the satellite is in the earth's shadow,
|
|